Location: Unspecified
(0.0000°N, 0.0000°E)
Time: 22:26:55
(UTC+00:00)

AO-85 - Visible Passes

Search period start: 19 January 2019 00:00
Search period end: 29 January 2019 00:00
Orbit: 493 x 791 km, 64.8° (Epoch: 17 January)

Date Brightness Start Highest point End Pass type
(mag) Time Alt. Az. Time Alt. Az. Time Alt. Az.
23 Jan ? 19:18:39 10° N 19:22:37 32° ENE 19:22:37 32° ENE visible
24 Jan ? 19:42:57 10° NNW 19:47:21 66° WSW 19:51:24 10° SSE visible
25 Jan ? 20:09:02 10° WNW 20:11:56 18° WSW 20:14:42 10° SSW visible
26 Jan ? 18:52:11 10° NNW 18:56:35 65° ENE 19:00:39 10° SSE visible
27 Jan ? 19:17:19 10° NW 19:21:13 31° WSW 19:24:50 10° S visible
